Temp
69 67 67 65 59 53 51 56 60 61 63 67 67 67 66 67 64 60 71 71 70 71 73 76 75 76 76 76 76 76 76 77 78 78 77 77 77 76 76 75 74 74 75 75 74 73 73 72 72
68 70 65 58 52 48 52 57 58 62 65 65 65 66 67 66 70 71 72 70 71 72 74 75 73 75 76 76 76 76 76 77 77 77 77 77 77 76 76 75 74 74 74 74 73 73 72 71 72
69 67 62 52 47 48 52 57 60 63 64 65 65 68 68 68 72 71 71 70 70 71 73 74 72 75 76 76 75 75 76 76 76 77 76 76 77 76 75 75 74 73 74 73 72 72 71 71 71
66 64 58 53 51 54 57 59 61 63 64 65 65 65 69 70 70 69 69 69 70 70 72 72 73 77 76 75 75 75 75 76 76 76 76 76 76 75 75 74 73 73 73 72 71 71 70 70 70
60 58 51 49 51 55 57 61 61 61 62 64 64 64 66 70 69 68 68 68 69 69 71 73 72 74 75 75 75 75 75 75 75 75 75 75 75 74 74 73 73 74 72 72 71 70 69 69 69
58 55 49 47 50 55 58 60 61 61 62 64 63 63 66 69 69 68 67 69 69 69 70 71 68 70 72 74 74 74 74 75 75 74 74 74 74 73 73 73 73 72 71 71 70 69 68 68 68
54 49 47 46 48 53 58 59 60 61 61 63 65 62 67 68 66 67 67 68 68 69 69 70 71 69 67 70 71 72 73 73 73 74 73 72 72 72 71 71 71 71 71 71 69 68 67 67 66
53 51 46 46 49 52 58 60 61 61 62 66 66 62 63 66 64 65 65 65 66 66 68 68 70 70 71 73 67 68 69 70 70 70 69 68 68 68 68 67 69 70 70 70 68 68 66 64 64
56 48 45 48 48 54 58 58 61 61 62 62 64 64 62 62 64 64 62 64 65 65 66 67 67 70 70 71 69 66 68 67 67 67 64 65 70 72 69 66 68 69 68 69 68 67 64 60 59
52 46 50 53 53 54 56 56 58 59 58 59 61 63 57 55 54 55 54 56 57 58 61 65 67 68 68 69 70 69 70 72 72 71 70 71 70 67 65 63 64 66 65 66 68 65 60 58 59
51 50 52 54 56 56 55 55 57 56 56 59 59 57 52 51 51 50 51 51 51 53 57 59 64 66 67 68 68 68 67 67 67 68 67 65 65 64 64 63 63 62 59 61 61 62 61 58 58
49 52 54 56 55 54 53 56 55 56 57 54 50 50 49 48 48 48 48 49 49 51 53 54 58 64 66 68 67 66 65 65 66 66 65 64 63 62 62 61 60 60 59 59 57 58 58 58 56
49 51 54 55 55 54 53 54 55 54 50 50 50 48 46 46 47 48 48 49 49 49 51 53 55 62 64 65 65 65 64 64 64 64 63 65 63 62 61 60 59 59 58 58 56 55 58 57 56
52 51 53 54 55 54 53 51 54 53 50 48 47 45 45 44 44 46 46 47 47 48 50 53 58 62 63 63 63 62 62 62 62 62 62 62 62 61 60 59 58 57 58 56 55 56 57 57 55
51 49 51 52 52 53 53 49 49 51 48 45 43 43 44 44 45 43 45 45 46 48 50 52 58 61 61 60 59 59 58 57 55 56 57 58 59 59 58 58 57 56 56 55 54 53 53 53 52
47 46 44 51 51 50 52 47 48 50 48 42 41 41 42 43 43 44 45 45 46 47 49 51 56 57 56 55 55 54 53 52 51 51 52 53 55 57 56 55 54 54 53 53 53 52 52 52 51
42 39 40 47 51 49 49 47 45 47 45 40 39 40 41 41 43 43 44 45 45 46 48 50 52 54 53 53 53 52 51 50 50 50 50 50 51 54 54 53 52 54 53 52 52 52 51 52 52
38 38 39 42 48 47 45 47 43 42 42 38 37 38 39 40 40 42 43 44 45 46 48 49 50 51 53 53 51 50 49 48 47 47 47 47 48 49 50 49 49 51 50 50 50 50 51 50 48
43 40 41 44 48 46 45 45 43 40 39 37 37 38 38 39 41 42 42 42 44 44 45 45 46 47 50 48 48 46 44 46 45 46 46 46 46 47 47 48 48 48 47 47 48 50 50 51 50
42 40 40 44 47 45 44 43 39 38 38 39 38 38 38 39 39 40 40 40 40 41 43 44 45 46 47 47 45 45 45 44 44 44 44 45 45 45 46 45 44 45 45 45 45 45 46 47 47
39 39 38 42 42 43 40 39 35 36 37 38 38 38 38 38 37 38 38 38 39 39 40 42 43 44 45 45 46 45 44 44 43 42 42 42 44 43 43 43 43 43 43 42 42 42 42 42 45
36 43 42 41 38 34 40 31 35 34 33 35 35 36 36 37 37 37 37 38 38 37 39 41 41 43 42 44 43 42 41 39 40 40 40 41 42 42 42 41 42 41 42 40 41 42 41 42 39
41 42 41 39 36 33 34 32 35 33 30 32 33 35 35 36 36 36 36 37 37 37 37 39 41 40 40 40 42 41 39 38 39 39 40 40 41 40 40 40 40 40 40 40 39 40 40 41 40
43 40 38 35 34 27 35 36 35 29 34 33 34 35 35 35 35 36 36 37 37 37 37 38 39 39 39 40 40 40 39 38 38 38 38 38 38 39 39 38 38 39 39 38 38 38 38 39 39
41 38 29 27 25 27 33 31 39 36 37 38 34 35 35 35 34 35 35 35 36 36 37 38 39 37 38 39 39 39 38 38 37 37 37 36 36 36 37 37 36 37 37 37 37 37 37 37 36
36 38 30 22 22 27 32 29 37 34 36 39 39 38 35 34 35 35 35 35 36 36 36 37 37 36 37 38 37 38 38 37 36 36 36 35 35 35 36 36 36 35 35 35 35 35 35 36 34
38 34 40 29 16 22 30 34 32 33 32 35 35 34 34 34 34 35 35 35 35 36 36 37 37 36 37 37 37 36 36 36 35 35 36 35 35 36 35 34 34 34 35 35 35 34 32 32 32
40 42 33 30 20 17 27 30 34 29 29 31 33 33 34 34 34 34 35 35 35 36 36 37 37 37 36 36 35 35 34 34 34 35 34 34 34 33 32 33 33 33 33 33 33 32 33 32 32
35 34 34 35 31 23 19 29 36 35 33 31 34 36 35 34 35 35 35 35 35 35 35 35 35 35 35 35 34 34 33 33 33 33 32 32 32 31 31 31 31 30 30 30 30 30 30 30 30
36 36 36 32 24 24 25 28 35 35 36 35 35 37 36 36 35 35 35 34 33 34 34 34 34 34 33 33 32 32 32 31 30 30 30 30 29 30 29 29 28 28 28 28 26 26 26 26 26
MSLP
1015.78 1015.78 1015.84 1016.27 1017.84 1018.67 1018.95 1018.71 1018.11 1017.73 1017.46 1017.13 1017.08 1017.12 1017.07 1017.00 1017.20 1017.66 1017.28 1017.40 1017.58 1017.65 1018.04 1018.21 1018.38 1018.67 1019.03 1019.39 1019.72 1020.04 1020.26 1020.42 1020.59 1020.75 1020.89 1021.09 1021.34 1021.58 1021.94 1022.15 1022.30 1022.43 1022.50 1022.53 1022.48 1022.36 1022.55 1022.65 1022.61
1015.80 1015.82 1016.38 1017.43 1018.42 1019.27 1019.23 1018.54 1018.00 1017.52 1017.19 1017.08 1017.10 1017.04 1017.05 1017.13 1016.99 1017.04 1017.29 1017.51 1017.54 1017.60 1017.95 1018.25 1018.48 1018.75 1019.09 1019.39 1019.71 1019.99 1020.24 1020.41 1020.59 1020.74 1020.99 1021.21 1021.42 1021.59 1021.92 1022.14 1022.36 1022.63 1022.73 1022.80 1022.75 1022.72 1022.79 1022.78 1022.82
1015.89 1016.14 1017.24 1018.21 1019.36 1019.41 1018.93 1018.34 1017.83 1017.39 1017.17 1017.06 1017.12 1017.07 1017.06 1017.09 1017.03 1017.23 1017.45 1017.60 1017.74 1017.88 1017.99 1018.18 1018.47 1018.74 1019.07 1019.47 1019.77 1020.01 1020.30 1020.51 1020.59 1020.79 1021.02 1021.35 1021.63 1021.84 1021.97 1022.28 1022.39 1022.77 1022.91 1022.96 1023.07 1023.11 1023.14 1022.98 1023.00
1016.26 1016.99 1018.53 1018.70 1019.33 1019.03 1018.69 1018.20 1017.78 1017.50 1017.24 1017.08 1017.07 1017.25 1017.21 1017.16 1017.37 1017.56 1017.67 1017.81 1017.86 1018.03 1018.22 1018.41 1018.57 1018.70 1019.01 1019.39 1019.70 1020.02 1020.34 1020.50 1020.75 1021.11 1021.24 1021.49 1021.86 1022.07 1022.20 1022.41 1022.57 1022.85 1023.17 1023.26 1023.37 1023.46 1023.39 1023.38 1023.33
1017.02 1017.96 1018.99 1019.46 1019.32 1018.94 1018.60 1018.17 1017.83 1017.56 1017.40 1017.25 1017.15 1017.32 1017.45 1017.48 1017.61 1017.63 1017.64 1017.84 1018.04 1018.27 1018.40 1018.56 1018.71 1018.79 1018.98 1019.34 1019.64 1019.95 1020.29 1020.61 1020.86 1021.14 1021.46 1021.75 1022.08 1022.29 1022.52 1022.68 1022.82 1023.08 1023.41 1023.56 1023.69 1023.69 1023.72 1023.76 1023.52
1017.96 1018.85 1019.71 1019.93 1019.39 1018.90 1018.56 1018.22 1017.89 1017.60 1017.43 1017.26 1017.30 1017.48 1017.74 1017.82 1017.87 1017.95 1017.99 1018.07 1018.12 1018.32 1018.54 1018.68 1018.91 1019.08 1019.18 1019.27 1019.67 1020.08 1020.33 1020.59 1020.89 1021.15 1021.54 1021.80 1022.12 1022.39 1022.63 1022.89 1023.19 1023.49 1023.65 1023.72 1023.90 1024.02 1024.02 1024.00 1023.96
1018.46 1019.65 1020.15 1019.99 1019.58 1018.93 1018.42 1018.14 1017.86 1017.62 1017.49 1017.39 1017.44 1017.73 1018.11 1018.24 1018.48 1018.44 1018.41 1018.31 1018.42 1018.60 1018.79 1018.92 1019.07 1019.25 1019.37 1019.51 1019.76 1020.10 1020.37 1020.70 1020.98 1021.26 1021.60 1021.92 1022.18 1022.51 1022.79 1023.01 1023.35 1023.55 1023.72 1023.83 1024.11 1024.20 1024.28 1024.36 1024.45
1018.89 1019.89 1020.54 1020.07 1019.65 1018.84 1018.31 1018.04 1017.80 1017.72 1017.67 1017.56 1017.64 1018.25 1018.85 1018.99 1019.00 1018.90 1018.87 1018.90 1018.86 1018.88 1019.01 1019.13 1019.28 1019.45 1019.58 1019.63 1019.95 1020.08 1020.36 1020.75 1020.99 1021.26 1021.60 1022.00 1022.30 1022.55 1022.85 1022.85 1023.33 1023.67 1023.79 1023.97 1024.23 1024.29 1024.49 1024.75 1024.83
1019.08 1019.99 1020.43 1019.86 1019.66 1018.68 1018.36 1018.21 1018.05 1017.97 1018.07 1018.04 1018.17 1018.77 1019.89 1019.72 1019.34 1019.27 1019.39 1019.37 1019.33 1019.33 1019.27 1019.31 1019.42 1019.47 1019.66 1019.87 1020.05 1020.29 1020.37 1020.65 1021.03 1021.35 1021.72 1022.14 1022.40 1022.77 1023.01 1022.94 1023.30 1023.71 1023.96 1024.07 1024.32 1024.49 1024.82 1025.04 1025.15
1019.26 1020.10 1019.68 1019.25 1018.96 1018.62 1018.49 1018.47 1018.41 1018.49 1018.77 1018.76 1019.01 1019.56 1020.44 1020.51 1020.54 1020.49 1020.64 1020.59 1020.41 1020.07 1019.81 1019.49 1019.34 1019.43 1019.65 1019.88 1020.11 1020.41 1020.49 1020.71 1021.05 1021.40 1021.82 1022.11 1022.51 1022.90 1023.07 1023.26 1023.46 1023.72 1024.03 1024.22 1024.36 1024.70 1025.02 1025.18 1025.33
1019.19 1019.39 1019.25 1018.92 1018.71 1018.52 1018.58 1018.64 1018.61 1018.97 1019.36 1019.76 1020.30 1020.89 1021.46 1021.61 1021.67 1021.78 1021.80 1021.81 1021.59 1021.08 1020.38 1019.98 1019.47 1019.34 1019.52 1019.86 1020.15 1020.47 1020.87 1021.06 1021.24 1021.49 1021.84 1022.29 1022.69 1023.01 1023.24 1023.42 1023.63 1023.89 1024.24 1024.46 1024.56 1024.85 1025.14 1025.30 1025.38
1019.22 1019.09 1019.02 1018.68 1018.61 1018.64 1018.69 1018.81 1019.09 1019.55 1020.37 1020.90 1021.56 1022.11 1022.45 1022.53 1022.68 1022.74 1022.57 1022.33 1021.88 1021.34 1020.82 1020.30 1019.83 1019.36 1019.52 1019.76 1020.17 1020.57 1021.00 1021.44 1021.54 1021.65 1021.92 1022.31 1022.85 1023.07 1023.37 1023.68 1023.91 1024.09 1024.38 1024.60 1024.87 1025.03 1025.31 1025.46 1025.58
1019.16 1019.09 1018.94 1018.68 1018.65 1018.66 1018.78 1019.11 1019.58 1020.32 1021.38 1022.08 1022.52 1022.89 1023.21 1023.45 1023.54 1023.41 1023.20 1022.78 1022.28 1021.65 1021.05 1020.37 1019.82 1019.39 1019.49 1019.84 1020.37 1020.86 1021.33 1021.65 1021.90 1022.16 1022.29 1022.39 1022.72 1023.13 1023.54 1023.84 1024.11 1024.27 1024.54 1024.75 1024.99 1025.22 1025.35 1025.52 1025.66
1019.05 1019.16 1018.97 1018.63 1018.59 1018.63 1018.90 1019.47 1019.84 1021.24 1022.05 1022.70 1023.31 1023.90 1024.22 1024.30 1024.30 1024.01 1023.55 1023.15 1022.58 1022.03 1021.30 1020.51 1019.63 1019.36 1019.69 1020.22 1020.79 1021.36 1021.72 1022.06 1022.33 1022.56 1022.72 1022.93 1023.28 1023.50 1023.70 1024.01 1024.22 1024.55 1024.74 1024.99 1025.24 1025.41 1025.47 1025.59 1025.79
1019.30 1019.45 1019.18 1018.54 1018.49 1018.58 1018.87 1020.00 1020.74 1021.63 1022.62 1023.44 1024.19 1024.58 1024.74 1024.88 1024.75 1024.59 1024.43 1023.94 1023.44 1022.61 1021.77 1020.85 1020.17 1019.83 1020.11 1020.67 1021.28 1021.99 1022.71 1023.11 1023.50 1023.75 1023.81 1023.69 1023.71 1023.79 1024.12 1024.46 1024.57 1024.98 1025.20 1025.27 1025.56 1025.71 1025.81 1025.81 1025.86
1019.88 1019.99 1019.79 1018.71 1018.61 1018.72 1019.22 1020.61 1021.78 1022.27 1022.97 1024.26 1024.89 1025.30 1025.43 1025.50 1025.46 1025.23 1024.84 1024.39 1023.94 1023.28 1022.36 1021.47 1020.80 1020.86 1021.31 1021.89 1022.49 1023.08 1023.84 1024.20 1024.72 1024.83 1024.77 1024.69 1024.75 1024.34 1024.68 1024.96 1025.11 1025.38 1025.35 1025.58 1025.71 1025.96 1025.93 1025.92 1025.87
1020.72 1020.51 1020.27 1019.31 1018.79 1019.03 1019.58 1020.73 1022.19 1022.75 1023.50 1024.86 1025.56 1025.88 1026.03 1026.06 1025.91 1025.75 1025.43 1024.83 1024.32 1024.03 1023.34 1022.57 1022.07 1021.99 1022.36 1022.90 1023.52 1024.13 1024.62 1025.06 1025.65 1025.85 1025.94 1026.01 1025.73 1025.56 1025.51 1025.72 1025.92 1025.83 1025.70 1025.89 1026.09 1026.16 1026.23 1026.05 1025.86
1020.56 1020.80 1020.38 1019.78 1019.26 1019.44 1020.13 1020.84 1022.42 1023.43 1024.16 1025.31 1026.03 1026.32 1026.49 1026.53 1026.65 1026.51 1026.14 1025.56 1024.77 1024.45 1024.16 1023.72 1023.41 1023.30 1023.26 1023.58 1024.21 1024.80 1025.38 1026.17 1026.59 1026.77 1026.96 1026.93 1026.88 1026.66 1026.40 1026.51 1026.67 1026.58 1026.57 1026.78 1026.67 1026.50 1026.35 1026.44 1026.28
1019.92 1020.30 1020.21 1019.77 1019.39 1019.80 1020.25 1021.13 1022.33 1024.00 1024.91 1025.72 1026.17 1026.49 1026.68 1026.85 1027.03 1026.85 1026.67 1026.25 1025.76 1025.17 1024.72 1024.79 1024.61 1024.67 1024.29 1024.50 1024.90 1025.81 1026.62 1027.33 1027.35 1027.72 1027.89 1027.61 1027.70 1027.58 1027.50 1027.62 1027.58 1027.61 1027.68 1027.94 1027.64 1027.21 1027.05 1026.76 1026.64
1020.03 1020.41 1020.43 1020.00 1019.70 1020.21 1020.56 1021.49 1022.77 1024.05 1025.12 1025.78 1026.27 1026.79 1027.01 1027.29 1027.30 1027.34 1027.24 1026.94 1026.59 1026.31 1026.01 1025.59 1025.45 1025.45 1025.36 1025.39 1026.19 1026.77 1027.50 1028.44 1028.84 1028.98 1028.89 1028.95 1028.88 1028.85 1028.65 1028.67 1028.83 1028.85 1028.74 1028.73 1028.65 1028.40 1027.93 1027.73 1027.60
1020.10 1020.42 1020.44 1020.33 1020.23 1020.42 1021.02 1021.72 1022.92 1024.47 1025.40 1026.21 1026.78 1027.20 1027.47 1027.72 1027.88 1028.06 1028.07 1027.99 1027.70 1027.27 1027.08 1026.84 1026.76 1026.46 1026.54 1026.74 1026.99 1027.53 1028.04 1028.79 1029.14 1029.52 1029.68 1029.93 1029.83 1029.92 1029.88 1029.84 1029.75 1029.67 1029.58 1029.69 1029.71 1029.54 1029.28 1028.83 1028.34
1019.72 1019.65 1020.04 1020.54 1021.07 1021.31 1021.45 1021.91 1022.62 1024.04 1025.45 1026.38 1026.99 1027.49 1027.84 1028.15 1028.35 1028.57 1028.73 1028.64 1028.46 1028.30 1028.12 1027.79 1027.47 1027.28 1027.44 1027.47 1027.65 1028.17 1028.80 1029.52 1030.49 1030.55 1030.70 1030.59 1030.52 1030.57 1030.66 1030.57 1030.59 1030.50 1030.33 1030.14 1030.10 1030.02 1029.81 1029.50 1029.40
1019.15 1019.42 1020.17 1020.76 1021.30 1021.74 1022.07 1023.00 1021.99 1023.76 1025.07 1025.95 1026.77 1027.41 1027.99 1028.40 1028.63 1028.91 1028.91 1029.08 1029.13 1028.97 1028.78 1028.69 1028.53 1028.56 1028.77 1028.64 1028.62 1028.98 1029.68 1030.48 1030.99 1031.06 1030.90 1030.97 1031.02 1031.12 1031.27 1031.22 1031.10 1030.99 1030.95 1030.95 1030.75 1030.48 1030.31 1030.10 1030.02
1019.23 1019.93 1020.78 1021.48 1021.93 1021.96 1021.26 1022.04 1021.50 1022.68 1022.77 1024.79 1026.16 1027.01 1027.67 1028.34 1028.79 1029.16 1029.25 1029.13 1029.37 1029.58 1029.35 1029.22 1029.24 1029.61 1029.59 1029.66 1029.77 1029.93 1030.37 1030.84 1031.03 1031.39 1031.47 1031.52 1031.48 1031.48 1031.61 1031.75 1031.68 1031.52 1031.39 1031.29 1031.16 1031.03 1030.86 1030.67 1030.49
1018.96 1019.96 1021.36 1022.08 1022.30 1021.22 1021.01 1021.87 1020.06 1020.88 1021.92 1022.77 1024.56 1026.01 1026.99 1027.88 1028.57 1029.04 1029.34 1029.43 1029.58 1029.72 1029.87 1029.81 1029.74 1030.11 1030.26 1030.23 1030.50 1030.81 1031.04 1031.20 1031.44 1031.73 1031.97 1032.07 1032.04 1031.93 1031.95 1032.01 1031.96 1031.82 1031.83 1031.70 1031.52 1031.13 1030.87 1030.74 1030.65
1018.44 1018.87 1020.02 1020.83 1021.67 1021.26 1021.28 1020.89 1019.94 1021.25 1022.05 1022.86 1024.17 1025.46 1026.73 1027.73 1028.25 1028.75 1029.12 1029.22 1029.40 1029.71 1029.89 1030.15 1029.97 1030.27 1030.59 1030.70 1030.91 1031.32 1031.46 1031.62 1031.84 1031.95 1032.08 1031.78 1031.92 1032.16 1032.05 1031.96 1031.88 1031.93 1031.60 1031.68 1031.59 1031.10 1030.98 1030.72 1030.52
1018.04 1018.52 1018.56 1020.29 1022.29 1021.84 1020.26 1019.92 1020.54 1021.52 1022.45 1023.30 1024.38 1025.63 1026.61 1027.38 1028.03 1028.61 1029.03 1029.08 1029.23 1029.53 1029.76 1029.95 1030.54 1030.38 1030.78 1031.00 1031.10 1031.27 1031.56 1031.64 1031.79 1031.84 1031.95 1031.97 1032.05 1032.36 1032.15 1032.00 1032.16 1031.94 1031.73 1031.65 1031.23 1030.87 1030.61 1030.58 1030.41
1016.52 1016.96 1018.62 1019.70 1021.14 1021.37 1020.04 1019.95 1019.66 1021.16 1022.26 1023.21 1024.07 1024.89 1025.88 1026.83 1027.60 1028.14 1028.51 1028.80 1029.14 1029.50 1029.74 1030.15 1030.43 1030.33 1030.93 1030.88 1031.08 1031.41 1031.74 1031.98 1032.15 1032.13 1032.40 1032.45 1032.76 1032.76 1032.51 1032.49 1032.38 1031.95 1031.62 1031.44 1030.98 1030.70 1030.46 1030.28 1029.66
1016.94 1017.13 1017.85 1018.58 1019.39 1019.83 1020.10 1018.73 1018.15 1019.16 1020.63 1021.87 1023.09 1024.04 1024.78 1025.65 1026.64 1027.56 1028.14 1028.22 1028.55 1029.03 1029.67 1029.91 1030.77 1030.45 1031.05 1031.02 1031.34 1031.66 1032.16 1032.81 1032.87 1032.88 1033.07 1032.85 1032.78 1032.50 1032.48 1032.41 1032.08 1031.96 1031.66 1031.32 1030.99 1030.82 1030.29 1029.76 1029.13
1015.90 1016.18 1016.40 1017.29 1018.93 1019.39 1019.70 1018.29 1018.43 1018.81 1019.71 1021.21 1022.35 1023.08 1024.03 1024.86 1025.83 1026.60 1027.74 1028.38 1028.39 1029.17 1029.55 1029.59 1030.67 1030.64 1031.00 1031.18 1031.67 1032.19 1032.68 1032.98 1032.88 1033.09 1032.98 1032.85 1032.79 1032.69 1032.71 1032.47 1032.23 1032.12 1031.96 1031.62 1031.41 1030.72 1030.18 1029.61 1029.00
Wind_Speed
4 4 3 5 5 5 1 1 1 0 1 1 2 2 2 2 3 2 1 6 2 9 11 11 10 12 13 11 12 11 10 11 11 11 11 13 15 14 14 15 14 13 13 13 14 14 13 12 10
2 2 5 3 6 4 3 3 2 2 2 1 1 1 2 0 2 3 2 5 3 10 12 11 10 11 12 12 12 11 9 9 10 10 10 12 14 16 14 14 15 13 11 12 13 13 13 12 10
3 4 4 5 4 4 3 3 2 2 1 2 2 1 3 1 1 1 2 7 4 8 9 10 9 11 13 12 12 11 9 9 8 9 10 11 10 13 15 12 13 12 10 11 12 12 12 11 10
3 5 5 6 3 2 2 2 3 2 1 2 1 3 2 1 2 2 4 4 6 7 7 8 9 13 11 12 12 10 9 9 8 9 10 11 13 13 13 12 12 11 9 10 11 12 12 11 10
5 3 5 4 1 2 3 3 2 1 0 2 2 0 1 2 3 3 3 5 6 6 6 7 9 9 12 12 12 11 10 9 8 9 9 13 12 13 13 12 11 8 9 9 11 12 12 12 12
5 3 5 2 3 3 3 2 2 1 1 3 1 1 1 2 2 2 2 2 3 6 5 6 6 5 5 12 12 10 9 9 8 8 9 13 13 13 13 13 10 8 7 9 10 11 11 12 12
7 4 4 4 2 3 1 3 3 2 1 1 0 1 0 4 6 2 3 3 2 2 3 4 6 6 5 4 8 9 8 7 7 8 10 12 12 13 13 13 9 7 7 7 8 10 11 11 11
5 5 3 2 3 3 1 1 1 1 1 5 1 1 2 4 6 3 5 6 5 3 0 3 4 5 5 3 5 7 8 7 6 7 9 10 11 12 11 13 9 6 6 6 7 8 10 10 10
3 5 2 4 6 3 1 2 1 2 1 3 3 4 4 8 6 5 5 5 5 4 3 1 3 5 4 4 2 4 6 8 6 5 7 8 5 6 3 8 10 7 6 6 6 7 8 9 9
5 4 6 4 4 3 1 1 2 1 3 2 2 5 11 10 11 10 8 7 7 8 9 5 4 5 4 3 3 2 2 2 4 4 6 5 4 3 4 5 8 8 6 5 5 9 9 7 4
2 5 3 2 4 2 2 2 1 0 2 2 2 3 9 11 11 10 9 6 7 9 6 8 6 5 6 3 2 1 1 1 1 2 2 4 3 3 2 2 2 3 4 2 4 3 3 4 3
1 1 4 2 2 1 2 2 2 4 1 5 8 6 5 11 11 10 9 9 11 10 10 10 7 5 6 3 3 3 2 0 0 2 4 4 2 3 3 2 2 2 2 3 2 2 3 4 4
2 2 2 3 5 5 1 4 3 3 7 8 10 12 11 10 9 8 8 7 9 9 11 10 6 4 4 4 4 4 3 1 3 3 3 1 3 3 2 2 2 2 2 2 2 2 2 3 4
5 2 5 6 3 4 4 1 5 3 5 10 11 10 9 11 10 9 12 12 12 11 12 11 4 6 6 6 7 5 5 6 6 5 5 6 3 2 2 2 3 2 2 2 2 2 2 2 3
2 4 6 4 2 4 6 3 2 4 7 9 9 8 10 10 11 11 10 10 12 10 10 11 7 7 10 11 11 10 9 9 10 9 12 12 8 6 5 4 5 3 3 5 3 2 1 2 3
2 4 3 2 3 1 4 3 2 2 5 7 7 7 9 11 10 11 11 11 12 11 11 11 10 14 15 14 11 10 10 10 9 9 9 14 11 11 7 6 7 4 5 3 3 3 2 3 3
5 3 4 8 3 2 2 4 5 6 7 7 5 6 7 8 11 12 12 11 12 12 11 12 13 15 16 15 13 13 14 11 10 9 10 12 13 11 9 8 7 6 6 6 4 3 3 4 5
7 5 4 5 2 2 3 8 4 7 7 7 6 6 8 9 10 10 12 11 11 12 13 13 11 12 13 11 11 11 11 11 10 10 10 13 11 12 9 9 11 9 8 8 7 5 3 2 5
6 5 5 4 3 4 8 6 1 4 6 7 7 8 8 8 5 9 10 11 11 13 14 14 14 13 8 7 7 9 10 9 12 11 15 16 15 15 14 10 11 11 11 11 11 7 8 6 9
3 4 6 4 4 4 6 8 1 4 2 3 8 7 8 6 8 9 11 11 12 11 12 13 13 13 11 7 7 7 7 9 8 9 13 14 15 14 13 12 11 12 9 13 13 11 5 4 8
5 7 6 7 2 3 2 5 5 3 5 5 5 5 5 6 8 8 10 10 10 13 11 12 12 13 11 10 8 7 6 6 8 9 9 11 13 13 13 13 10 10 9 8 10 10 11 6 4
6 9 7 6 4 5 1 6 4 4 5 4 6 5 5 6 6 6 6 8 9 9 8 11 11 12 11 11 12 14 10 10 6 7 6 8 12 13 12 12 11 10 8 10 8 8 8 7 7
5 6 8 4 3 1 2 1 4 6 6 8 8 7 6 5 6 6 6 6 6 6 8 9 12 13 11 10 12 11 12 8 5 6 10 10 10 12 11 11 11 11 8 9 10 10 10 6 5
9 7 6 4 3 3 11 10 5 8 8 11 9 8 9 8 7 5 4 5 6 5 6 7 12 11 10 11 11 12 11 8 7 7 7 6 5 6 9 9 9 8 8 8 7 7 8 7 6
3 6 1 1 1 7 1 4 8 6 4 16 20 16 12 10 8 8 7 6 5 6 5 6 9 10 8 10 10 9 9 9 9 7 6 5 5 5 7 7 7 7 7 8 7 8 7 6 6
8 8 6 8 6 3 2 7 6 1 3 6 15 14 11 10 8 8 8 7 7 6 6 6 8 8 6 7 8 6 7 5 5 5 4 5 6 5 7 7 7 8 8 7 7 6 6 7 6
7 7 4 6 2 3 6 4 1 3 3 12 15 13 13 11 10 9 7 7 7 7 7 7 6 6 6 6 5 6 6 7 7 8 8 6 8 7 10 10 10 10 10 10 10 8 9 8 8
4 9 3 2 2 5 4 5 6 8 11 11 16 18 15 11 10 9 9 8 6 6 5 5 5 6 4 5 5 5 5 6 6 7 8 8 6 6 7 8 8 9 9 10 11 9 9 11 9
4 4 3 4 5 6 2 6 5 8 15 20 18 18 17 16 14 11 9 8 8 6 6 6 4 6 4 5 5 6 6 5 4 4 3 3 4 6 8 9 10 11 12 12 12 12 13 13 14
2 8 8 7 5 2 3 7 1 3 13 16 18 18 15 15 14 12 11 9 8 7 6 6 4 5 4 5 5 6 4 3 3 3 5 5 7 7 9 9 10 11 11 11 12 14 14 15 15
Wind_Direction
15 27 66 43 61 64 53 151 277 265 285 220 120 152 154 163 156 181 216 193 253 163 170 175 166 152 152 153 140 141 141 140 136 133 129 117 106 99 94 83 68 54 49 47 47 48 46 42 39
28 90 48 82 82 67 290 264 200 212 231 292 128 97 62 23 263 295 67 169 163 155 165 170 171 157 158 154 148 145 145 144 142 141 128 131 128 125 109 95 78 56 49 49 47 49 45 45 44
104 40 79 87 106 146 174 230 249 270 254 171 122 34 158 221 295 248 357 165 143 158 164 167 176 167 161 158 155 150 150 151 150 144 133 130 121 103 96 86 84 65 47 49 48 49 49 48 47
58 17 47 77 112 197 164 308 224 334 356 36 129 105 295 290 316 332 332 136 140 156 166 172 175 180 165 155 154 157 152 149 137 135 129 123 111 97 87 80 76 78 51 50 48 45 45 42 46
37 57 61 81 274 253 258 276 281 85 297 333 338 179 301 2 340 26 113 144 147 161 173 178 181 186 164 158 160 163 162 159 148 138 128 118 110 99 89 85 77 62 49 51 50 45 43 37 39
45 89 64 162 256 281 273 268 262 82 354 310 71 32 325 338 7 47 105 132 140 159 171 174 186 200 198 164 161 165 166 163 155 145 137 127 120 106 99 88 72 63 45 51 53 50 46 41 38
105 76 168 162 237 310 213 326 159 154 341 320 185 61 87 35 344 51 49 65 82 132 164 189 189 206 224 169 159 166 175 169 160 154 144 131 121 115 109 93 84 67 45 51 61 53 50 46 39
100 92 116 216 191 210 249 337 166 85 237 314 176 55 18 343 344 65 47 40 37 46 106 204 202 204 210 219 176 179 174 172 168 158 139 136 133 134 137 117 110 87 59 53 72 61 60 51 40
118 64 160 205 165 207 321 71 194 314 319 351 5 71 24 350 3 38 19 14 15 14 350 281 216 208 199 227 157 195 215 173 166 155 126 134 137 144 125 127 125 103 82 55 92 76 78 70 53
84 107 214 191 201 185 291 152 289 308 16 307 40 65 28 29 33 40 25 1 343 338 323 311 238 207 189 182 195 163 173 162 138 146 146 154 135 113 107 117 119 112 101 68 92 94 73 56 43
144 172 199 220 228 201 166 276 187 165 300 192 274 18 25 31 37 36 18 2 332 320 325 325 285 213 188 166 138 147 95 121 130 114 91 99 110 117 108 117 110 99 74 60 86 89 51 51 45
74 230 194 252 154 151 216 151 258 191 120 71 71 70 51 37 31 19 7 355 345 337 328 323 309 226 193 141 131 121 101 336 85 147 143 137 129 134 141 115 121 95 75 81 65 62 53 33 26
158 263 195 266 278 258 4 221 236 335 98 85 73 58 49 40 25 14 359 356 350 351 338 330 300 203 158 128 100 73 61 42 63 34 44 91 139 144 131 121 112 98 82 54 75 66 43 12 3
183 244 274 271 219 236 215 102 140 125 122 71 65 60 51 44 23 13 11 2 1 350 351 339 18 131 116 94 85 80 65 55 52 51 47 54 40 55 89 103 76 44 54 70 59 25 13 9 354
113 312 320 252 217 226 161 106 108 96 90 71 56 50 46 35 31 26 7 3 354 351 358 11 36 82 89 83 76 68 59 57 47 39 34 40 37 53 51 39 58 41 34 56 49 51 18 348 336
71 45 348 280 154 23 171 229 2 311 108 83 66 49 43 33 24 16 13 12 3 3 23 34 59 73 74 74 71 69 61 60 54 47 38 40 29 44 50 55 49 28 51 51 50 20 346 355 353
4 221 214 315 206 101 174 229 183 338 111 108 79 59 53 37 25 16 13 16 17 10 26 46 58 75 83 82 79 73 68 62 53 48 40 36 35 38 53 47 35 33 54 44 28 27 7 347 344
193 204 224 231 187 164 191 258 126 20 105 113 99 79 63 51 26 10 13 14 33 32 35 45 54 63 81 83 83 74 67 59 55 50 45 40 42 42 52 46 37 34 39 30 16 14 4 8 344
141 179 193 234 243 178 228 243 37 109 110 126 113 101 87 68 25 34 29 26 36 43 54 47 46 38 57 61 73 65 67 58 54 50 47 46 42 41 42 44 41 39 44 36 27 3 6 16 357
155 166 232 280 228 169 254 253 351 29 72 137 134 117 106 91 56 41 33 34 39 48 51 59 65 63 64 74 81 85 87 68 67 55 50 45 46 45 49 49 45 41 40 34 30 27 9 4 21
205 187 204 220 0 235 325 253 205 56 96 102 91 107 94 93 85 54 47 33 41 45 43 57 58 64 65 75 91 87 78 75 63 51 56 47 53 50 50 52 53 51 47 41 34 25 27 8 350
222 204 179 182 136 233 124 282 234 166 148 152 143 136 122 108 86 74 58 56 54 43 43 60 68 74 69 76 82 82 86 86 70 70 67 57 51 51 47 49 45 45 42 41 33 29 27 22 19
234 144 161 143 169 87 221 287 243 139 204 190 180 166 151 139 122 111 99 83 61 46 51 62 70 66 60 72 83 88 89 88 82 66 65 55 51 47 42 40 39 37 33 29 26 19 19 20 9
146 82 61 67 112 249 208 186 231 191 195 170 177 175 167 157 148 139 121 113 90 60 67 81 87 75 72 76 79 89 94 95 84 67 60 48 42 41 37 30 29 29 24 19 12 9 8 2 353
154 121 79 331 230 229 65 180 256 184 176 173 172 178 173 166 163 160 155 141 124 116 101 95 96 90 88 90 87 88 88 86 84 81 71 58 42 35 30 21 19 16 5 0 353 352 348 345 335
184 166 170 204 199 230 112 227 254 5 268 172 169 168 160 168 172 172 169 156 147 139 122 116 112 109 99 95 93 88 88 88 88 78 69 57 38 21 17 14 13 3 357 346 339 338 333 321 310
181 197 160 108 32 57 218 273 229 96 53 151 163 159 175 179 180 178 175 169 158 151 146 135 126 115 108 105 97 77 59 55 44 38 36 27 24 4 2 3 350 347 345 340 339 334 327 316 305
171 155 105 12 184 253 266 263 238 199 183 170 173 179 183 180 180 183 181 172 168 156 147 139 125 108 101 92 78 74 63 50 44 36 25 16 0 351 348 345 339 338 338 334 333 324 313 303 300
150 173 85 135 161 184 234 252 215 196 178 183 185 185 183 183 186 185 186 176 171 155 158 134 130 110 95 77 66 63 60 59 51 47 25 4 355 3 3 354 349 344 339 337 330 320 313 311 305
194 188 167 167 211 218 149 260 357 234 175 174 183 189 191 187 182 183 182 176 161 171 161 144 151 129 102 93 104 108 94 66 52 31 18 15 13 7 355 349 342 335 329 325 318 313 311 308 306